Location: Clarion
(42.7316°N, 93.7330°W)
Time: 08:41:40
(UTC+00:00)

SL-16 R/B - Pass Details

Date: 22 April 2026
Orbit: 985 x 1006 km, 99.8° (Epoch: 17 May)

Event Time Altitude Azimuth Distance (km) Brightness Sun altitude
Rises 09:11:22 0° 137° (SE) 3,720 5.6 -21.6°
Reaches altitude 10° 09:14:01 10° 129° (SE) 2,775 5.0 -21.2°
Maximum altitude 09:19:40 38° 65° (ENE) 1,504 4.0 -20.5°
Drops below altitude 10° 09:25:20 10° 360° (N) 2,791 5.4 -19.7°
Sets 09:27:59 0° 352° (N) 3,744 6.0 -19.3°
